STARLINK-32402, 61708

Orbit data source: Space-Track

STARLINK-32402, 61708 is a payload satellite owned by SpaceX/Seattle (US) in LEO that was launched on Wed, 30 Oct 2024 UTC via an FALCON 9 launch vehicle from the Air Force Eastern Test Range (AFETR). Payload-class satellites include a variety of spacecraft equipped with specific instruments for various scientific and technological missions. These include communications satellites like Starlink; space stations such as the ISS; scientific satellites like the Hubble; Earth observation satellites from companies like Planet Labs, Umbra, and HawkEye 360; GPS; miniature CubeSats for education and research; and military/defense satellites.

Loading next visibility...
Identifier
61708, 2024-196B
Orbit
LEO
Country
Flag of USUS
Related business
Manufacturer
SpaceX/Seattle
Mission
Operational Commercial Communications
Bus & Motor
STARLINK V2M, Unknown motor
Mass
730 kg wet, ~700 kg dry
Launch date (UTC)
2024-10-30 (11 months ago)
Launch vehicle
FALCON 9
Launch site
Air Force Eastern Test Range (AFETR)
Object type
Payload
Rocket body
Debris
Shape & HBR
Box + 2 Pan, 14.5 m
Radar Cross Section
36.964 m², Large (>1 m²)

Expand to show TLE details & history
Last TLE update: 1 day ago

TLE from 1 day ago
0 STARLINK-32402
1 61708U 24196B   25260.06200188 -.00002127  00000-0 -59735-4 0  9991
2 61708  53.1589 187.8072 0001143  88.8116 271.3015 15.30183682 50572
Epoch: 2025-09-17T01:29Z
TLE epoch observation values (Epoch: 2025-09-17T01:29:16.962Z)
Latitude
-0.00007°
Longitude
169.24312°
Altitude
476.146 km
Speed
7.629 km/s
True Right ascension
12h 31m 13s
True Declination
0° 00' 00"
Sunlit
Object was in daylight at epoch
Visualization orbit readout
Latitude
Unknown
Longitude
Unknown
Altitude
Unknown
Speed
Unknown
Apparent Right ascension
Unknown
Apparent Declination
Unknown
Sunlit
N/A
Visualization observer readout
Local Sidereal Time
22:29:32
Azimuth
Unknown
Elevation
Unknown
Doppler factor
Unknown
Orbital elements
Apogee altitude
476.304 km
Perigee altitude
474.737 km
Semi-major axis
6,853.657 km
Eccentricity
0.00011
Inclination
53.1589°
RAAN
187.8072°
Arg. of periapsis
88.8116°
True anomaly
271.28841°
Mean anomaly
271.3015°
Eccentric anomaly
271.29495°
Mean motion
3.82525 °/min
Orbital period
94.11 mins
BSTAR
-0.000059735
Loading maneuver chart data...
Computing Atmospheric mass density...
Loading historical data...
Loading historical data...
Loading historical data...
Loading historical data...
Loading historical data...
Loading historical data...
Loading historical data...

Documentation

Showing up to 5 results
|